Location: Arcusa
(42.3167°N, 0.0833°W)
Time: 09:53:10
(UTC+00:00)

Cosmos 1980 Rocket - Pass Details

Date: 25 January 2020
Orbit: 830 x 849 km, 71.0° (Epoch: 18 February)

Event Time Altitude Azimuth Distance (km) Brightness Sun altitude
Exits shadow 05:18:33 37° 323° (NW) 1,295 2.8 -22.5°
Drops below altitude 10° 05:22:59 10° 11° (N) 2,471 4.7 -21.7°
Sets 05:25:36 0° 19° (NNE) 3,407 5.5 -21.2°
